| time (UTC) | temp F | wind direction | speed knots | gust knots | rain 1hr in | rain 24hr in | rain mn in | humidity % | barometer mb |
| 20260509201549 | 91 | 0 | 0.0 | 4.3 | 0.00 | 0.00 | 0.00 | 59 | 1009.0 |
| 20260509201035 | 91 | 273 | 1.7 | 4.3 | 0.00 | 0.00 | 0.00 | 60 | 1009.0 |
| 20260509200538 | 90 | 323 | 0.9 | 4.3 | 0.00 | 0.00 | 0.00 | 59 | 1009.0 |
| 20260509200054 | 90 | 360 | 0.9 | 4.3 | 0.00 | 0.00 | 0.00 | 60 | 1009.1 |
| 20260509195535 | 90 | 333 | 0.0 | 3.5 | 0.00 | 0.00 | 0.00 | 63 | 1009.1 |
| 20260509195034 | 90 | 0 | 0.9 | 4.3 | 0.00 | 0.00 | 0.00 | 63 | 1009.1 |
| 20260509194552 | 89 | 169 | 0.9 | 4.3 | 0.00 | 0.00 | 0.00 | 61 | 1009.1 |
| 20260509194033 | 89 | 211 | 1.7 | 4.3 | 0.00 | 0.00 | 0.00 | 62 | 1009.2 |
| 20260509193536 | 89 | 352 | 0.9 | 3.5 | 0.00 | 0.00 | 0.00 | 63 | 1009.2 |
| 20260509193049 | 88 | 322 | 0.9 | 5.2 | 0.00 | 0.00 | 0.00 | 63 | 1009.3 |
| 20260509192535 | 88 | 244 | 1.7 | 5.2 | 0.00 | 0.00 | 0.00 | 65 | 1009.5 |
| 20260509192035 | 88 | 348 | 0.9 | 4.3 | 0.00 | 0.00 | 0.00 | 63 | 1009.5 |
| 20260509191550 | 88 | 360 | 0.0 | 7.0 | 0.00 | 0.00 | 0.00 | 65 | 1009.5 |
| 20260509191038 | 88 | 28 | 0.0 | 7.0 | 0.00 | 0.00 | 0.00 | 63 | 1009.6 |
| 20260509190535 | 88 | 0 | 0.9 | 5.2 | 0.00 | 0.00 | 0.00 | 65 | 1009.7 |
| 20260509190047 | 88 | 319 | 1.7 | 5.2 | 0.00 | 0.00 | 0.00 | 66 | 1009.7 |
| 20260509185536 | 88 | 263 | 0.9 | 5.2 | 0.00 | 0.00 | 0.00 | 69 | 1009.8 |
| 20260509185034 | 87 | 200 | 0.9 | 3.5 | 0.00 | 0.00 | 0.00 | 68 | 1009.9 |
| 20260509184546 | 87 | 338 | 0.9 | 5.2 | 0.00 | 0.00 | 0.00 | 69 | 1009.9 |
| 20260509184035 | 87 | 0 | 1.7 | 5.2 | 0.00 | 0.00 | 0.00 | 69 | 1010.0 |
| 20260509183537 | 86 | 273 | 0.9 | 3.5 | 0.00 | 0.00 | 0.00 | 70 | 1010.0 |
| 20260509183137 | 86 | 325 | 0.9 | 2.6 | 0.00 | 0.00 | 0.00 | 70 | 1010.1 |
| 20260509182537 | 86 | 0 | 0.9 | 5.2 | 0.00 | 0.00 | 0.00 | 71 | 1010.2 |
| 20260509182036 | 86 | 271 | 0.0 | 5.2 | 0.00 | 0.00 | 0.00 | 71 | 1010.3 |
| 20260509181609 | 86 | 211 | 0.9 | 4.3 | 0.00 | 0.00 | 0.00 | 73 | 1010.3 |
| 20260509181035 | 85 | 239 | 0.9 | 4.3 | 0.00 | 0.00 | 0.00 | 75 | 1010.4 |
| 20260509180535 | 85 | 103 | 1.7 | 4.3 | 0.00 | 0.00 | 0.00 | 75 | 1010.5 |
| 20260509180055 | 84 | 165 | 0.0 | 4.3 | 0.00 | 0.00 | 0.00 | 75 | 1010.5 |
| 20260509175536 | 84 | 233 | 0.0 | 3.5 | 0.00 | 0.00 | 0.00 | 77 | 1010.6 |
| 20260509175036 | 83 | 331 | 0.9 | 3.5 | 0.00 | 0.00 | 0.00 | 79 | 1010.8 |
| 20260509174547 | 83 | 261 | 0.9 | 3.5 | 0.00 | 0.00 | 0.00 | 79 | 1010.7 |
| 20260509174037 | 82 | 348 | 0.9 | 4.3 | 0.00 | 0.00 | 0.00 | 79 | 1010.8 |
| 20260509173535 | 82 | 204 | 0.0 | 4.3 | 0.00 | 0.00 | 0.00 | 82 | 1010.8 |
| 20260509173047 | 81 | 171 | 0.9 | 4.3 | 0.00 | 0.00 | 0.00 | 83 | 1010.9 |
| 20260509172536 | 81 | 161 | 0.0 | 3.5 | 0.00 | 0.00 | 0.00 | 83 | 1011.0 |
| 20260509172036 | 80 | 292 | 0.0 | 3.5 | 0.00 | 0.00 | 0.00 | 86 | 1011.0 |
| 20260509171548 | 80 | 221 | 0.9 | 3.5 | 0.00 | 0.00 | 0.00 | 86 | 1010.9 |
| 20260509171035 | 79 | 249 | 0.0 | 2.6 | 0.00 | 0.00 | 0.00 | 87 | 1011.0 |
| 20260509170537 | 79 | 336 | 0.0 | 2.6 | 0.00 | 0.00 | 0.00 | 87 | 1010.9 |
| 20260509170046 | 78 | 0 | 0.0 | 0.0 | 0.00 | 0.00 | 0.00 | 87 | 1011.0 |
| 20260509165536 | 78 | 0 | 0.0 | 0.0 | 0.00 | 0.00 | 0.00 | 87 | 1011.0 |
| 20260509165035 | 78 | 0 | 0.0 | 0.0 | 0.00 | 0.00 | 0.00 | 87 | 1011.1 |
| 20260509164544 | 78 | 0 | 0.0 | 0.0 | 0.00 | 0.00 | 0.00 | 87 | 1011.1 |
| 20260509164036 | 78 | 0 | 0.0 | 0.0 | 0.00 | 0.00 | 0.00 | 88 | 1011.1 |
| 20260509163538 | 78 | 0 | 0.0 | 0.0 | 0.00 | 0.00 | 0.00 | 88 | 1011.1 |
| 20260509163057 | 78 | 0 | 0.0 | 0.0 | 0.00 | 0.00 | 0.00 | 88 | 1011.0 |
| 20260509162536 | 77 | 0 | 0.0 | 0.0 | 0.00 | 0.00 | 0.00 | 88 | 1011.0 |
| 20260509162036 | 77 | 0 | 0.0 | 0.0 | 0.00 | 0.00 | 0.00 | 89 | 1011.1 |
| 20260509161549 | 77 | 0 | 0.0 | 0.0 | 0.00 | 0.00 | 0.00 | 89 | 1011.1 |
| 20260509161038 | 77 | 0 | 0.0 | 0.0 | 0.00 | 0.00 | 0.00 | 90 | 1011.1 |
| 20260509160536 | 77 | 0 | 0.0 | 0.0 | 0.00 | 0.00 | 0.00 | 90 | 1011.0 |
| 20260509160049 | 77 | 0 | 0.0 | 0.0 | 0.00 | 0.00 | 0.00 | 91 | 1011.0 |
| 20260509155535 | 77 | 0 | 0.0 | 0.0 | 0.00 | 0.00 | 0.00 | 91 | 1011.1 |
| 20260509155036 | 77 | 0 | 0.0 | 0.0 | 0.00 | 0.00 | 0.00 | 91 | 1011.1 |
| 20260509154552 | 76 | 0 | 0.0 | 0.0 | 0.00 | 0.00 | 0.00 | 92 | 1010.9 |
| 20260509154036 | 76 | 0 | 0.0 | 0.9 | 0.00 | 0.00 | 0.00 | 92 | 1011.0 |
| 20260509153535 | 76 | 0 | 0.0 | 1.7 | 0.00 | 0.00 | 0.00 | 93 | 1011.1 |
| 20260509153045 | 76 | 0 | 0.0 | 2.6 | 0.00 | 0.00 | 0.00 | 93 | 1011.2 |
| 20260509152536 | 76 | 0 | 0.0 | 2.6 | 0.00 | 0.00 | 0.00 | 93 | 1011.2 |
| 20260509152036 | 75 | 140 | 0.0 | 1.7 | 0.00 | 0.00 | 0.00 | 93 | 1011.2 |
| 20260509151546 | 75 | 0 | 0.0 | 0.9 | 0.00 | 0.00 | 0.00 | 93 | 1011.1 |
| 20260509151038 | 75 | 0 | 0.0 | 1.7 | 0.00 | 0.00 | 0.00 | 93 | 1011.2 |
| 20260509150536 | 75 | 0 | 0.0 | 1.7 | 0.00 | 0.00 | 0.00 | 93 | 1011.2 |
| 20260509150051 | 75 | 140 | 0.0 | 2.6 | 0.00 | 0.00 | 0.00 | 94 | 1011.0 |
| 20260509145536 | 75 | 0 | 0.0 | 3.5 | 0.00 | 0.00 | 0.00 | 94 | 1011.0 |
| 20260509145039 | 75 | 0 | 0.9 | 3.5 | 0.00 | 0.00 | 0.00 | 94 | 1010.7 |
| 20260509144548 | 75 | 212 | 0.9 | 3.5 | 0.00 | 0.00 | 0.00 | 94 | 1010.4 |
| 20260509144035 | 75 | 0 | 0.0 | 3.5 | 0.00 | 0.00 | 0.00 | 94 | 1010.4 |
| 20260509143536 | 75 | 0 | 0.0 | 3.5 | 0.00 | 0.00 | 0.00 | 94 | 1010.3 |
| 20260509143046 | 74 | 222 | 0.9 | 5.2 | 0.00 | 0.00 | 0.00 | 94 | 1010.1 |
| 20260509142535 | 74 | 138 | 0.9 | 8.7 | 0.00 | 0.00 | 0.00 | 94 | 1009.9 |
| 20260509142035 | 74 | 201 | 3.5 | 8.7 | 0.00 | 0.00 | 0.00 | 94 | 1010.0 |
| 20260509141607 | 74 | 205 | 1.7 | 8.7 | 0.00 | 0.00 | 0.00 | 94 | 1010.1 |
| 20260509141036 | 74 | 128 | 1.7 | 8.7 | 0.00 | 0.00 | 0.00 | 94 | 1010.0 |
| 20260509140535 | 74 | 136 | 1.7 | 5.2 | 0.00 | 0.00 | 0.00 | 94 | 1010.0 |
| 20260509140057 | 74 | 215 | 1.7 | 4.3 | 0.00 | 0.00 | 0.00 | 94 | 1009.9 |
| 20260509135540 | 74 | 147 | 1.7 | 7.0 | 0.00 | 0.01 | 0.00 | 94 | 1009.8 |
| 20260509135035 | 74 | 146 | 0.9 | 7.0 | 0.00 | 0.01 | 0.00 | 94 | 1010.0 |
| 20260509134552 | 74 | 121 | 2.6 | 7.0 | 0.00 | 0.01 | 0.00 | 94 | 1010.0 |
| 20260509134036 | 74 | 175 | 1.7 | 6.1 | 0.00 | 0.01 | 0.00 | 94 | 1010.0 |
| 20260509133536 | 73 | 227 | 2.6 | 6.1 | 0.00 | 0.01 | 0.00 | 94 | 1010.0 |
| 20260509133047 | 73 | 217 | 2.6 | 6.1 | 0.00 | 0.01 | 0.00 | 94 | 1009.9 |
| 20260509132536 | 73 | 163 | 2.6 | 6.1 | 0.00 | 0.01 | 0.00 | 94 | 1010.0 |
| 20260509132036 | 73 | 0 | 2.6 | 6.1 | 0.00 | 0.01 | 0.00 | 94 | 1009.8 |
| 20260509131547 | 73 | 177 | 2.6 | 6.1 | 0.00 | 0.01 | 0.00 | 94 | 1009.8 |
| 20260509131036 | 73 | 135 | 0.9 | 4.3 | 0.00 | 0.01 | 0.00 | 94 | 1010.0 |
| 20260509130536 | 73 | 219 | 0.0 | 2.6 | 0.00 | 0.01 | 0.00 | 94 | 1010.2 |
| 20260509130053 | 73 | 0 | 0.0 | 3.5 | 0.00 | 0.01 | 0.00 | 94 | 1010.0 |
| 20260509125536 | 73 | 222 | 0.0 | 3.5 | 0.00 | 0.03 | 0.00 | 94 | 1009.9 |
| 20260509125038 | 73 | 0 | 0.9 | 3.5 | 0.00 | 0.03 | 0.00 | 94 | 1010.1 |
| 20260509124546 | 73 | 250 | 0.0 | 2.6 | 0.00 | 0.03 | 0.00 | 94 | 1010.0 |
| 20260509124035 | 73 | 195 | 0.0 | 2.6 | 0.00 | 0.03 | 0.00 | 94 | 1010.0 |
| 20260509123539 | 73 | 167 | 0.0 | 2.6 | 0.00 | 0.03 | 0.00 | 94 | 1009.8 |
| 20260509123055 | 73 | 0 | 0.9 | 2.6 | 0.00 | 0.03 | 0.00 | 94 | 1009.8 |
| 20260509122537 | 73 | 183 | 0.0 | 1.7 | 0.00 | 0.03 | 0.00 | 94 | 1009.9 |
| 20260509122036 | 73 | 0 | 0.0 | 0.9 | 0.00 | 0.03 | 0.00 | 94 | 1010.1 |
| 20260509121550 | 73 | 0 | 0.0 | 0.9 | 0.00 | 0.03 | 0.00 | 94 | 1010.4 |
| 20260509121037 | 73 | 0 | 0.0 | 0.9 | 0.00 | 0.03 | 0.00 | 94 | 1010.6 |
| 20260509120536 | 73 | 0 | 0.0 | 1.7 | 0.00 | 0.03 | 0.00 | 94 | 1010.4 |
| 20260509120053 | 73 | 0 | 0.0 | 1.7 | 0.00 | 0.03 | 0.00 | 94 | 1010.4 |
| 20260509115535 | 73 | 0 | 0.0 | 0.0 | 0.00 | 0.03 | 0.00 | 94 | 1010.3 |
| 20260509115035 | 73 | 0 | 0.0 | 0.0 | 0.00 | 0.03 | 0.00 | 94 | 1010.4 |
| 20260509114547 | 73 | 0 | 0.0 | 0.0 | 0.00 | 0.03 | 0.00 | 94 | 1010.4 |
| 20260509114036 | 73 | 0 | 0.0 | 0.0 | 0.00 | 0.03 | 0.00 | 94 | 1010.5 |
| 20260509113536 | 73 | 0 | 0.0 | 0.0 | 0.00 | 0.03 | 0.00 | 94 | 1010.5 |
| 20260509113046 | 73 | 0 | 0.0 | 0.0 | 0.00 | 0.03 | 0.00 | 94 | 1010.4 |
| 20260509112534 | 73 | 0 | 0.0 | 1.7 | 0.00 | 0.03 | 0.00 | 94 | 1010.4 |
| 20260509112034 | 73 | 0 | 0.0 | 1.7 | 0.00 | 0.03 | 0.00 | 93 | 1010.4 |
| 20260509111549 | 73 | 0 | 0.0 | 1.7 | 0.00 | 0.03 | 0.00 | 94 | 1010.3 |
| 20260509111034 | 73 | 0 | 0.0 | 0.0 | 0.00 | 0.03 | 0.00 | 94 | 1010.1 |
| 20260509110537 | 73 | 0 | 0.0 | 0.0 | 0.00 | 0.03 | 0.00 | 93 | 1009.9 |
| 20260509110050 | 73 | 0 | 0.0 | 0.0 | 0.00 | 0.03 | 0.00 | 93 | 1010.2 |
| 20260509105535 | 73 | 0 | 0.0 | 0.0 | 0.00 | 0.03 | 0.00 | 93 | 1010.3 |
| 20260509105036 | 73 | 0 | 0.0 | 0.0 | 0.00 | 0.03 | 0.00 | 93 | 1010.3 |
| 20260509104554 | 73 | 0 | 0.0 | 0.9 | 0.00 | 0.03 | 0.00 | 93 | 1010.2 |
| 20260509104036 | 73 | 0 | 0.0 | 0.9 | 0.00 | 0.03 | 0.00 | 93 | 1010.3 |
| 20260509103534 | 73 | 0 | 0.0 | 0.9 | 0.00 | 0.03 | 0.00 | 93 | 1010.3 |
| 20260509103050 | 73 | 0 | 0.0 | 0.0 | 0.00 | 0.03 | 0.00 | 93 | 1010.6 |
| 20260509102535 | 73 | 0 | 0.0 | 0.0 | 0.00 | 0.03 | 0.00 | 93 | 1010.7 |
| 20260509102035 | 73 | 0 | 0.0 | 0.0 | 0.00 | 0.03 | 0.00 | 93 | 1010.7 |
| 20260509101554 | 73 | 0 | 0.0 | 1.7 | 0.00 | 0.03 | 0.00 | 93 | 1010.5 |
| 20260509101034 | 73 | 0 | 0.0 | 2.6 | 0.00 | 0.03 | 0.00 | 93 | 1010.4 |
| 20260509100534 | 73 | 0 | 0.0 | 2.6 | 0.00 | 0.03 | 0.00 | 93 | 1010.6 |
| 20260509100050 | 73 | 0 | 0.0 | 1.7 | 0.00 | 0.03 | 0.00 | 93 | 1010.4 |
| 20260509095535 | 73 | 0 | 0.0 | 1.7 | 0.00 | 0.03 | 0.00 | 93 | 1010.3 |
| 20260509095035 | 73 | 0 | 0.0 | 1.7 | 0.00 | 0.03 | 0.00 | 93 | 1010.2 |
| 20260509094551 | 73 | 0 | 0.0 | 1.7 | 0.00 | 0.03 | 0.00 | 93 | 1010.3 |
| 20260509094034 | 73 | 0 | 0.0 | 1.7 | 0.00 | 0.03 | 0.00 | 93 | 1010.3 |
| 20260509093534 | 73 | 0 | 0.0 | 1.7 | 0.00 | 0.03 | 0.00 | 93 | 1009.7 |
| 20260509093056 | 73 | 0 | 0.0 | 1.7 | 0.00 | 0.03 | 0.00 | 93 | 1009.5 |
| 20260509092533 | 73 | 183 | 0.0 | 0.9 | 0.00 | 0.03 | 0.00 | 93 | 1009.7 |
| 20260509092035 | 73 | 0 | 0.0 | 0.9 | 0.00 | 0.03 | 0.00 | 93 | 1009.8 |
| 20260509091546 | 73 | 0 | 0.0 | 0.9 | 0.00 | 0.03 | 0.00 | 93 | 1009.8 |
| 20260509091036 | 73 | 0 | 0.0 | 0.9 | 0.00 | 0.03 | 0.00 | 93 | 1010.0 |
| 20260509090536 | 73 | 0 | 0.0 | 0.9 | 0.00 | 0.03 | 0.00 | 93 | 1009.9 |
| 20260509090050 | 73 | 0 | 0.0 | 0.9 | 0.00 | 0.03 | 0.00 | 93 | 1010.0 |
| 20260509085536 | 73 | 0 | 0.0 | 1.7 | 0.00 | 0.03 | 0.00 | 93 | 1010.1 |
| 20260509085036 | 73 | 0 | 0.0 | 1.7 | 0.00 | 0.03 | 0.00 | 93 | 1010.3 |
| 20260509084554 | 73 | 182 | 0.0 | 0.9 | 0.00 | 0.03 | 0.00 | 92 | 1010.4 |
| 20260509084035 | 73 | 0 | 0.0 | 0.9 | 0.00 | 0.03 | 0.00 | 92 | 1010.5 |
| 20260509083534 | 73 | 0 | 0.0 | 0.9 | 0.00 | 0.03 | 0.00 | 92 | 1010.4 |
| 20260509083052 | 73 | 0 | 0.0 | 0.0 | 0.00 | 0.03 | 0.00 | 92 | 1010.4 |
| 20260509082534 | 73 | 0 | 0.0 | 0.0 | 0.00 | 0.03 | 0.00 | 92 | 1010.5 |
| 20260509082039 | 73 | 0 | 0.0 | 0.0 | 0.00 | 0.03 | 0.00 | 92 | 1010.4 |
| 20260509081552 | 73 | 0 | 0.0 | 1.7 | 0.00 | 0.03 | 0.00 | 92 | 1010.4 |
| 20260509081036 | 73 | 0 | 0.0 | 1.7 | 0.00 | 0.03 | 0.00 | 92 | 1010.4 |
| 20260509080535 | 73 | 183 | 0.0 | 3.5 | 0.00 | 0.03 | 0.00 | 92 | 1010.4 |
| 20260509080054 | 73 | 182 | 0.9 | 3.5 | 0.00 | 0.03 | 0.00 | 92 | 1010.4 |
| 20260509075536 | 73 | 0 | 0.9 | 3.5 | 0.00 | 0.03 | 0.00 | 92 | 1010.3 |
| 20260509075037 | 73 | 150 | 0.9 | 2.6 | 0.00 | 0.03 | 0.00 | 92 | 1010.2 |
| 20260509074549 | 73 | 150 | 0.0 | 2.6 | 0.00 | 0.03 | 0.00 | 92 | 1010.1 |
| 20260509074035 | 73 | 150 | 0.9 | 2.6 | 0.00 | 0.03 | 0.00 | 92 | 1010.4 |
| 20260509073536 | 73 | 150 | 0.9 | 2.6 | 0.00 | 0.03 | 0.00 | 92 | 1010.4 |
| 20260509073048 | 73 | 150 | 0.0 | 2.6 | 0.00 | 0.03 | 0.00 | 92 | 1010.5 |
| 20260509072537 | 73 | 0 | 0.0 | 2.6 | 0.00 | 0.03 | 0.00 | 92 | 1010.7 |
| 20260509072035 | 73 | 150 | 0.0 | 2.6 | 0.00 | 0.03 | 0.00 | 92 | 1010.7 |
| 20260509071552 | 73 | 0 | 0.0 | 2.6 | 0.00 | 0.03 | 0.00 | 92 | 1010.7 |
| 20260509071035 | 73 | 150 | 0.0 | 2.6 | 0.00 | 0.03 | 0.00 | 92 | 1010.7 |
| 20260509070535 | 73 | 150 | 0.9 | 4.3 | 0.00 | 0.03 | 0.00 | 92 | 1010.6 |
| 20260509070054 | 73 | 0 | 0.0 | 4.3 | 0.00 | 0.03 | 0.00 | 92 | 1010.5 |
| 20260509065535 | 73 | 163 | 0.9 | 3.5 | 0.00 | 0.03 | 0.00 | 91 | 1010.6 |
| 20260509065034 | 73 | 168 | 0.9 | 6.1 | 0.00 | 0.03 | 0.00 | 92 | 1010.6 |
| 20260509064551 | 73 | 225 | 0.9 | 6.1 | 0.00 | 0.03 | 0.00 | 92 | 1010.6 |
| 20260509064033 | 73 | 213 | 2.6 | 6.1 | 0.00 | 0.03 | 0.00 | 92 | 1010.4 |
| 20260509063534 | 73 | 164 | 1.7 | 6.1 | 0.00 | 0.03 | 0.00 | 91 | 1010.3 |
| 20260509063048 | 73 | 202 | 2.6 | 6.1 | 0.00 | 0.03 | 0.00 | 91 | 1010.2 |
| 20260509062535 | 73 | 138 | 1.7 | 4.3 | 0.00 | 0.03 | 0.00 | 91 | 1010.2 |
| 20260509062035 | 73 | 207 | 0.9 | 7.8 | 0.00 | 0.03 | 0.00 | 91 | 1010.3 |
| 20260509061549 | 73 | 0 | 1.7 | 7.8 | 0.00 | 0.03 | 0.00 | 91 | 1010.3 |
| 20260509061035 | 73 | 184 | 2.6 | 7.8 | 0.00 | 0.03 | 0.00 | 91 | 1010.3 |
| 20260509060536 | 73 | 155 | 2.6 | 5.2 | 0.00 | 0.03 | 0.00 | 91 | 1010.3 |
| 20260509060048 | 73 | 219 | 1.7 | 5.2 | 0.00 | 0.03 | 0.00 | 91 | 1010.6 |
| 20260509055537 | 73 | 142 | 1.7 | 5.2 | 0.00 | 0.03 | 0.00 | 91 | 1010.6 |
| 20260509055038 | 73 | 205 | 0.9 | 5.2 | 0.00 | 0.03 | 0.00 | 91 | 1010.5 |
| 20260509054550 | 73 | 150 | 2.6 | 5.2 | 0.00 | 0.03 | 0.00 | 91 | 1010.3 |
| 20260509054036 | 73 | 166 | 1.7 | 5.2 | 0.00 | 0.03 | 0.00 | 91 | 1010.3 |
| 20260509053536 | 73 | 172 | 0.9 | 5.2 | 0.00 | 0.03 | 0.00 | 91 | 1010.3 |
| 20260509053052 | 73 | 209 | 1.7 | 5.2 | 0.00 | 0.03 | 0.00 | 91 | 1010.1 |
| 20260509052534 | 73 | 133 | 0.9 | 4.3 | 0.00 | 0.03 | 0.00 | 91 | 1010.1 |
| 20260509052040 | 73 | 158 | 1.7 | 7.0 | 0.00 | 0.03 | 0.00 | 90 | 1010.1 |
| 20260509051558 | 73 | 136 | 1.7 | 7.0 | 0.00 | 0.03 | 0.00 | 90 | 1010.0 |
| 20260509051035 | 73 | 146 | 2.6 | 7.0 | 0.00 | 0.03 | 0.00 | 90 | 1009.9 |
| 20260509050535 | 73 | 128 | 1.7 | 6.1 | 0.00 | 0.03 | 0.00 | 90 | 1010.0 |
| 20260509050049 | 73 | 146 | 0.9 | 6.1 | 0.00 | 0.03 | 0.00 | 90 | 1010.1 |
| 20260509045535 | 74 | 157 | 0.9 | 6.1 | 0.00 | 0.03 | 0.03 | 90 | 1010.1 |
| 20260509045036 | 74 | 145 | 1.7 | 5.2 | 0.00 | 0.03 | 0.03 | 90 | 1010.1 |
| 20260509044548 | 74 | 128 | 1.7 | 7.0 | 0.00 | 0.03 | 0.03 | 90 | 1010.2 |
| 20260509044035 | 74 | 151 | 1.7 | 7.0 | 0.00 | 0.03 | 0.03 | 90 | 1010.0 |
| 20260509043536 | 74 | 201 | 2.6 | 7.0 | 0.00 | 0.03 | 0.03 | 90 | 1009.8 |
| 20260509043048 | 74 | 151 | 2.6 | 7.8 | 0.00 | 0.03 | 0.03 | 90 | 1009.7 |
| 20260509042537 | 74 | 152 | 2.6 | 7.8 | 0.00 | 0.03 | 0.03 | 89 | 1009.6 |
| 20260509042036 | 74 | 140 | 3.5 | 7.8 | 0.00 | 0.03 | 0.03 | 89 | 1009.7 |
| 20260509041549 | 74 | 166 | 1.7 | 8.7 | 0.00 | 0.03 | 0.03 | 89 | 1009.8 |
| 20260509041035 | 74 | 138 | 2.6 | 8.7 | 0.00 | 0.03 | 0.03 | 89 | 1009.8 |
| 20260509040534 | 74 | 163 | 2.6 | 8.7 | 0.00 | 0.03 | 0.03 | 89 | 1009.8 |
| 20260509040049 | 74 | 153 | 2.6 | 8.7 | 0.00 | 0.03 | 0.03 | 88 | 1009.8 |
| 20260509035537 | 74 | 143 | 3.5 | 7.8 | 0.00 | 0.03 | 0.03 | 88 | 1009.8 |
| 20260509035037 | 74 | 144 | 3.5 | 7.0 | 0.00 | 0.03 | 0.03 | 88 | 1009.8 |
| 20260509034549 | 74 | 154 | 2.6 | 7.0 | 0.00 | 0.03 | 0.03 | 88 | 1009.7 |
| 20260509034034 | 74 | 141 | 2.6 | 5.2 | 0.00 | 0.03 | 0.03 | 88 | 1009.7 |
| 20260509033535 | 74 | 130 | 2.6 | 5.2 | 0.00 | 0.03 | 0.03 | 88 | 1009.7 |
| 20260509033046 | 75 | 142 | 1.7 | 7.0 | 0.00 | 0.03 | 0.03 | 88 | 1009.7 |
| 20260509032537 | 75 | 155 | 1.7 | 7.0 | 0.00 | 0.03 | 0.03 | 87 | 1009.7 |
| 20260509032034 | 75 | 140 | 2.6 | 7.0 | 0.00 | 0.03 | 0.03 | 87 | 1009.6 |
| 20260509031546 | 75 | 148 | 1.7 | 5.2 | 0.00 | 0.03 | 0.03 | 87 | 1009.5 |
| 20260509031034 | 75 | 126 | 1.7 | 5.2 | 0.00 | 0.03 | 0.03 | 87 | 1009.5 |
| 20260509030535 | 75 | 138 | 1.7 | 6.1 | 0.00 | 0.03 | 0.03 | 87 | 1009.4 |
| 20260509030051 | 75 | 0 | 1.7 | 6.1 | 0.00 | 0.03 | 0.03 | 87 | 1009.4 |
| 20260509025536 | 75 | 141 | 1.7 | 6.1 | 0.00 | 0.03 | 0.03 | 87 | 1009.4 |
| 20260509025038 | 75 | 142 | 1.7 | 6.1 | 0.00 | 0.03 | 0.03 | 86 | 1009.4 |
| 20260509024548 | 75 | 182 | 0.9 | 5.2 | 0.00 | 0.03 | 0.03 | 86 | 1009.4 |
| 20260509024036 | 75 | 205 | 1.7 | 7.0 | 0.00 | 0.03 | 0.03 | 86 | 1009.3 |
| 20260509023535 | 75 | 149 | 1.7 | 7.0 | 0.00 | 0.03 | 0.03 | 86 | 1009.3 |
| 20260509023047 | 75 | 139 | 1.7 | 7.0 | 0.00 | 0.03 | 0.03 | 86 | 1009.2 |
| 20260509022539 | 75 | 182 | 1.7 | 7.0 | 0.00 | 0.03 | 0.03 | 86 | 1009.3 |
| 20260509022037 | 76 | 150 | 2.6 | 7.0 | 0.00 | 0.03 | 0.03 | 85 | 1009.4 |
| 20260509021548 | 76 | 162 | 2.6 | 7.0 | 0.00 | 0.03 | 0.03 | 85 | 1009.3 |
| 20260509021034 | 76 | 140 | 0.9 | 4.3 | 0.00 | 0.03 | 0.03 | 85 | 1009.3 |
| 20260509020534 | 76 | 128 | 1.7 | 4.3 | 0.00 | 0.03 | 0.03 | 85 | 1009.2 |
| 20260509020046 | 76 | 127 | 0.9 | 3.5 | 0.00 | 0.03 | 0.03 | 85 | 1009.2 |
| 20260509015536 | 76 | 127 | 0.9 | 3.5 | 0.00 | 0.03 | 0.03 | 85 | 1009.2 |
| 20260509015037 | 76 | 0 | 1.7 | 3.5 | 0.00 | 0.03 | 0.03 | 85 | 1009.1 |
| 20260509014547 | 76 | 127 | 0.9 | 2.6 | 0.00 | 0.03 | 0.03 | 84 | 1009.2 |
| 20260509014034 | 76 | 0 | 0.0 | 2.6 | 0.00 | 0.03 | 0.03 | 84 | 1009.2 |
| 20260509013535 | 76 | 127 | 0.9 | 2.6 | 0.00 | 0.03 | 0.03 | 84 | 1009.2 |
| 20260509013105 | 76 | 127 | 0.9 | 2.6 | 0.00 | 0.03 | 0.03 | 84 | 1009.2 |
| 20260509012535 | 77 | 127 | 0.9 | 2.6 | 0.00 | 0.03 | 0.03 | 84 | 1009.2 |
| 20260509012035 | 77 | 127 | 0.9 | 3.5 | 0.00 | 0.03 | 0.03 | 83 | 1009.1 |
| 20260509011556 | 77 | 127 | 0.9 | 3.5 | 0.00 | 0.03 | 0.03 | 83 | 1009.0 |
| 20260509011034 | 77 | 140 | 1.7 | 3.5 | 0.00 | 0.03 | 0.03 | 83 | 1009.0 |
| 20260509010534 | 77 | 135 | 1.7 | 3.5 | 0.00 | 0.03 | 0.03 | 83 | 1009.0 |
| 20260509010048 | 77 | 0 | 0.9 | 3.5 | 0.00 | 0.03 | 0.03 | 83 | 1009.0 |
| 20260509005536 | 77 | 121 | 0.9 | 5.2 | 0.00 | 0.03 | 0.03 | 82 | 1008.9 |
| 20260509005036 | 77 | 121 | 1.7 | 5.2 | 0.00 | 0.03 | 0.03 | 82 | 1009.0 |
| 20260509004546 | 77 | 154 | 0.9 | 7.0 | 0.00 | 0.03 | 0.03 | 82 | 1008.9 |
| 20260509004034 | 77 | 134 | 2.6 | 7.0 | 0.00 | 0.03 | 0.03 | 82 | 1008.7 |
| 20260509003534 | 77 | 150 | 0.9 | 5.2 | 0.00 | 0.03 | 0.03 | 82 | 1008.8 |
| 20260509003052 | 77 | 115 | 1.7 | 6.1 | 0.00 | 0.03 | 0.03 | 82 | 1008.9 |
| 20260509002535 | 77 | 133 | 1.7 | 6.1 | 0.00 | 0.03 | 0.03 | 82 | 1009.1 |
| 20260509002035 | 77 | 143 | 2.6 | 7.0 | 0.00 | 0.03 | 0.03 | 82 | 1009.0 |
| 20260509001544 | 78 | 135 | 2.6 | 7.8 | 0.00 | 0.03 | 0.03 | 82 | 1008.9 |
| 20260509001034 | 78 | 107 | 2.6 | 7.8 | 0.00 | 0.03 | 0.03 | 81 | 1008.9 |
| 20260509000538 | 78 | 129 | 2.6 | 7.8 | 0.00 | 0.03 | 0.03 | 81 | 1008.9 |
| 20260509000048 | 78 | 163 | 2.6 | 9.6 | 0.00 | 0.03 | 0.03 | 81 | 1008.8 |
| 20260508235535 | 78 | 115 | 1.7 | 9.6 | 0.00 | 0.03 | 0.03 | 80 | 1008.8 |
| 20260508235036 | 78 | 134 | 3.5 | 9.6 | 0.00 | 0.03 | 0.03 | 80 | 1008.9 |
| 20260508234548 | 79 | 130 | 3.5 | 7.8 | 0.00 | 0.03 | 0.03 | 80 | 1008.9 |
| 20260508234039 | 79 | 163 | 2.6 | 7.8 | 0.00 | 0.03 | 0.03 | 79 | 1008.9 |
| 20260508233535 | 79 | 121 | 4.3 | 8.7 | 0.00 | 0.03 | 0.03 | 78 | 1009.0 |
| 20260508233059 | 80 | 149 | 3.5 | 8.7 | 0.00 | 0.03 | 0.03 | 78 | 1008.9 |
| 20260508232537 | 80 | 140 | 3.5 | 8.7 | 0.00 | 0.03 | 0.03 | 79 | 1009.0 |
| 20260508232034 | 80 | 117 | 1.7 | 7.0 | 0.00 | 0.03 | 0.03 | 79 | 1008.9 |
| 20260508231552 | 79 | 126 | 2.6 | 7.8 | 0.00 | 0.03 | 0.03 | 79 | 1008.9 |
| 20260508231036 | 79 | 134 | 2.6 | 7.8 | 0.00 | 0.03 | 0.03 | 79 | 1008.9 |
| 20260508230537 | 79 | 121 | 3.5 | 7.8 | 0.00 | 0.03 | 0.03 | 79 | 1008.8 |
| 20260508230054 | 79 | 136 | 1.7 | 5.2 | 0.00 | 0.03 | 0.03 | 79 | 1009.0 |
| 20260508225535 | 80 | 116 | 1.7 | 5.2 | 0.00 | 0.03 | 0.03 | 77 | 1009.3 |
| 20260508225037 | 80 | 131 | 1.7 | 5.2 | 0.00 | 0.03 | 0.03 | 77 | 1009.2 |
| 20260508224544 | 80 | 128 | 2.6 | 5.2 | 0.00 | 0.03 | 0.03 | 76 | 1009.2 |
| 20260508224035 | 80 | 121 | 1.7 | 5.2 | 0.00 | 0.03 | 0.03 | 76 | 1009.1 |
| 20260508223535 | 81 | 125 | 1.7 | 5.2 | 0.00 | 0.03 | 0.03 | 75 | 1009.2 |
| 20260508223050 | 81 | 104 | 1.7 | 5.2 | 0.00 | 0.03 | 0.03 | 75 | 1009.2 |
| 20260508222534 | 81 | 138 | 1.7 | 5.2 | 0.00 | 0.03 | 0.03 | 74 | 1009.2 |
| 20260508222035 | 82 | 121 | 1.7 | 3.5 | 0.00 | 0.03 | 0.03 | 73 | 1009.2 |
| 20260508221545 | 82 | 145 | 0.9 | 3.5 | 0.00 | 0.03 | 0.03 | 73 | 1009.1 |
| 20260508221035 | 82 | 121 | 0.9 | 3.5 | 0.00 | 0.03 | 0.03 | 72 | 1009.1 |
| 20260508220534 | 82 | 76 | 0.9 | 6.1 | 0.00 | 0.03 | 0.03 | 73 | 1009.1 |
| 20260508220048 | 82 | 160 | 0.9 | 6.1 | 0.00 | 0.03 | 0.03 | 73 | 1009.2 |
| 20260508215535 | 82 | 132 | 2.6 | 6.1 | 0.00 | 0.03 | 0.03 | 72 | 1009.1 |
| 20260508215034 | 82 | 220 | 1.7 | 6.1 | 0.00 | 0.03 | 0.03 | 73 | 1009.2 |
| 20260508214548 | 82 | 192 | 1.7 | 6.1 | 0.00 | 0.03 | 0.03 | 74 | 1009.2 |
| 20260508214037 | 81 | 173 | 0.9 | 5.2 | 0.00 | 0.03 | 0.03 | 75 | 1009.2 |
| 20260508213537 | 81 | 159 | 1.7 | 5.2 | 0.00 | 0.03 | 0.03 | 73 | 1009.3 |
| 20260508213047 | 81 | 142 | 1.7 | 5.2 | 0.00 | 0.03 | 0.03 | 73 | 1009.3 |
| 20260508212535 | 81 | 0 | 0.0 | 3.5 | 0.00 | 0.03 | 0.03 | 73 | 1009.4 |
| 20260508212036 | 81 | 0 | 0.0 | 6.1 | 0.00 | 0.03 | 0.03 | 73 | 1009.5 |
| 20260508211543 | 81 | 112 | 1.7 | 6.1 | 0.00 | 0.03 | 0.03 | 72 | 1009.5 |
| 20260508211037 | 81 | 82 | 0.9 | 4.3 | 0.00 | 0.03 | 0.03 | 73 | 1009.6 |
| 20260508210535 | 81 | 208 | 1.7 | 5.2 | 0.00 | 0.03 | 0.03 | 74 | 1009.6 |
| 20260508210044 | 81 | 190 | 1.7 | 5.2 | 0.00 | 0.03 | 0.03 | 74 | 1009.8 |
| 20260508205536 | 81 | 75 | 1.7 | 5.2 | 0.00 | 0.03 | 0.03 | 73 | 1009.9 |
| 20260508205036 | 81 | 0 | 0.9 | 3.5 | 0.00 | 0.03 | 0.03 | 74 | 1009.9 |
| 20260508204551 | 81 | 126 | 0.9 | 6.1 | 0.00 | 0.03 | 0.03 | 73 | 1009.8 |
| 20260508204034 | 81 | 126 | 1.7 | 6.1 | 0.00 | 0.03 | 0.03 | 73 | 1009.8 |
| 20260508203538 | 81 | 0 | 0.9 | 5.2 | 0.00 | 0.03 | 0.03 | 73 | 1010.0 |
| 20260508203056 | 81 | 123 | 0.9 | 3.5 | 0.00 | 0.03 | 0.03 | 73 | 1010.0 |
| 20260508202536 | 81 | 106 | 0.9 | 3.5 | 0.00 | 0.03 | 0.03 | 73 | 1010.1 |
| 20260508202035 | 81 | 76 | 0.9 | 3.5 | 0.00 | 0.03 | 0.03 | 73 | 1010.3 |